When you browse on this site, cookies collect data to enhance your experience and personalize the content and advertising you see.
Visit our Privacy Policy to learn more. By continuing to use the site, you agree to this use of cookies and data.
  • In Latvia
  • List of Countries
  • For 7 days
  • Water Temperature
  • Satellite Maps
  • Weather Map
  • Weather Widgets
  • user-avatar
    Login

    Hourly Weather Córdoba

    Today, 27 May, Monday

    Time Temperature Precipitation Wind Pressure Humidity
    00:00 +13°C° 0 mm 1 mps 723 mmHg 42%
    01:00 +13°C° 0 mm 1 mps 723 mmHg 42%
    02:00 +13°C° 0 mm 1 mps 723 mmHg 42%
    03:00 +12°C° 0 mm 2 mps 722 mmHg 45%
    04:00 +12°C° 0 mm 2 mps 722 mmHg 47%
    05:00 +12°C° 0 mm 2 mps 722 mmHg 50%
    06:00 +12°C° 0 mm 2 mps 722 mmHg 51%
    07:00 +12°C° 0 mm 1 mps 722 mmHg 52%
    08:00 +13°C° 0 mm 1 mps 723 mmHg 53%
    09:00 +14°C° 0 mm 1 mps 723 mmHg 52%
    10:00 +15°C° 0 mm 1 mps 723 mmHg 50%
    11:00 +16°C° 0 mm 2 mps 723 mmHg 48%
    12:00 +16°C° 0 mm 2 mps 723 mmHg 47%
    13:00 +17°C° 0 mm 2 mps 722 mmHg 47%
    14:00 +17°C° 0 mm 2 mps 722 mmHg 46%
    15:00 +17°C° 0 mm 2 mps 722 mmHg 50%
    16:00 +16°C° 0 mm 2 mps 722 mmHg 54%
    17:00 +15°C° 0 mm 2 mps 722 mmHg 58%
    18:00 +15°C° 0 mm 1 mps 722 mmHg 63%
    19:00 +14°C° 0 mm 1 mps 723 mmHg 67%
    20:00 +12°C° 0 mm 0 mps 723 mmHg 72%
    21:00 +11°C° 0 mm 0 mps 723 mmHg 75%
    22:00 +11°C° 0 mm 0 mps 723 mmHg 77%
    23:00 +11°C° 0 mm 0 mps 723 mmHg 79%

    Tomorrow, 28 May, Tuesday

    Time Temperature Precipitation Wind Pressure Humidity
    00:00 +10°C° 0 mm 0 mps 723 mmHg 80%
    01:00 +10°C° 0 mm 0 mps 723 mmHg 80%
    02:00 +10°C° 0 mm 0 mps 723 mmHg 80%
    03:00 +10°C° 0 mm 0 mps 723 mmHg 79%
    04:00 +10°C° 0 mm 0 mps 723 mmHg 79%
    05:00 +9°C° 0 mm 0 mps 723 mmHg 78%
    06:00 +10°C° 0 mm 0 mps 724 mmHg 76%
    07:00 +10°C° 0 mm 0 mps 724 mmHg 74%
    08:00 +10°C° 0 mm 0 mps 725 mmHg 73%
    09:00 +13°C° 0 mm 1 mps 725 mmHg 66%
    10:00 +15°C° 0 mm 1 mps 725 mmHg 59%
    11:00 +19°C° 0 mm 1 mps 725 mmHg 53%
    12:00 +18°C° 0 mm 2 mps 725 mmHg 50%
    13:00 +19°C° 0 mm 2 mps 724 mmHg 47%
    14:00 +20°C° 0 mm 2 mps 724 mmHg 45%
    15:00 +19°C° 0 mm 2 mps 724 mmHg 50%
    16:00 +18°C° 0 mm 2 mps 724 mmHg 55%
    17:00 +17°C° 0 mm 2 mps 724 mmHg 60%
    18:00 +16°C° 0 mm 1 mps 724 mmHg 65%
    19:00 +15°C° 0 mm 1 mps 724 mmHg 70%
    20:00 +13°C° 0 mm 0 mps 725 mmHg 75%
    21:00 +12°C° 0 mm 0 mps 725 mmHg 78%
    22:00 +12°C° 0 mm 0 mps 725 mmHg 81%
    23:00 +12°C° 0 mm 0 mps 725 mmHg 84%

    Day after tomorrow, 29 May, Wednesday

    Time Temperature Precipitation Wind Pressure Humidity
    00:00 +11°C° 0 mm 0 mps 725 mmHg 85%
    01:00 +11°C° 0 mm 0 mps 725 mmHg 87%
    02:00 +11°C° 0 mm 0 mps 725 mmHg 88%
    03:00 +11°C° 0 mm 0 mps 724 mmHg 89%
    04:00 +11°C° 0 mm 0 mps 724 mmHg 91%
    05:00 +11°C° 0 mm 0 mps 724 mmHg 92%
    06:00 +11°C° 0 mm 0 mps 724 mmHg 91%
    07:00 +11°C° 0 mm 0 mps 724 mmHg 91%
    08:00 +12°C° 0 mm 0 mps 724 mmHg 90%
    09:00 +13°C° 0 mm 1 mps 724 mmHg 86%
    10:00 +14°C° 0 mm 1 mps 724 mmHg 83%
    11:00 +14°C° 0 mm 2 mps 723 mmHg 79%
    12:00 +15°C° 0 mm 2 mps 723 mmHg 77%
    13:00 +15°C° 0 mm 2 mps 722 mmHg 75%
    14:00 +16°C° 0 mm 2 mps 721 mmHg 73%
    15:00 +15°C° 0 mm 2 mps 721 mmHg 77%
    16:00 +15°C° 0 mm 2 mps 721 mmHg 81%
    17:00 +14°C° 0 mm 2 mps 721 mmHg 86%
    18:00 +14°C° 0 mm 1 mps 721 mmHg 87%
    19:00 +14°C° 0 mm 1 mps 721 mmHg 89%
    20:00 +14°C° 0 mm 1 mps 721 mmHg 90%
    21:00 +14°C° 0.1 mm 1 mps 721 mmHg 91%
    22:00 +14°C° 0.1 mm 1 mps 722 mmHg 92%
    23:00 +13°C° 0.1 mm 0 mps 722 mmHg 92%

    30 May, Thursday

    Time Temperature Precipitation Wind Pressure Humidity
    00:00 +14°C° 0.1 mm 1 mps 722 mmHg 93%
    01:00 +14°C° 0.1 mm 1 mps 722 mmHg 94%
    02:00 +14°C° 0.1 mm 1 mps 722 mmHg 95%
    03:00 +14°C° 0 mm 1 mps 721 mmHg 95%
    04:00 +13°C° 0 mm 1 mps 721 mmHg 96%
    05:00 +13°C° 0 mm 1 mps 721 mmHg 96%
    06:00 +14°C° 0 mm 1 mps 721 mmHg 95%
    07:00 +14°C° 0 mm 1 mps 722 mmHg 94%
    08:00 +13°C° 0 mm 0 mps 722 mmHg 92%
    09:00 +15°C° 0 mm 1 mps 723 mmHg 88%
    10:00 +16°C° 0 mm 2 mps 723 mmHg 84%
    11:00 +17°C° 0 mm 2 mps 723 mmHg 80%
    12:00 +17°C° 0 mm 2 mps 723 mmHg 79%
    13:00 +17°C° 0 mm 3 mps 722 mmHg 79%
    14:00 +17°C° 0 mm 3 mps 722 mmHg 79%
    15:00 +17°C° 0 mm 3 mps 722 mmHg 80%
    16:00 +17°C° 0 mm 2 mps 722 mmHg 82%
    17:00 +16°C° 0 mm 2 mps 722 mmHg 84%
    18:00 +16°C° 0.1 mm 2 mps 722 mmHg 87%
    19:00 +15°C° 0.1 mm 2 mps 723 mmHg 91%
    20:00 +14°C° 0.1 mm 2 mps 723 mmHg 94%
    21:00 +14°C° 0.1 mm 2 mps 723 mmHg 94%
    22:00 +14°C° 0.1 mm 2 mps 724 mmHg 95%
    23:00 +14°C° 0.1 mm 2 mps 724 mmHg 95%

    31 May, Friday

    Time Temperature Precipitation Wind Pressure Humidity
    00:00 +13°C° 0 mm 2 mps 724 mmHg 95%
    01:00 +13°C° 0 mm 2 mps 724 mmHg 94%
    02:00 +13°C° 0 mm 2 mps 724 mmHg 94%
    03:00 +13°C° 0 mm 2 mps 723 mmHg 93%
    04:00 +13°C° 0 mm 2 mps 723 mmHg 92%
    05:00 +13°C° 0 mm 2 mps 723 mmHg 92%
    06:00 +12°C° 0 mm 2 mps 723 mmHg 91%
    07:00 +12°C° 0 mm 2 mps 723 mmHg 91%
    08:00 +12°C° 0 mm 2 mps 724 mmHg 91%
    09:00 +13°C° 0 mm 2 mps 724 mmHg 87%
    10:00 +14°C° 0 mm 2 mps 724 mmHg 83%
    11:00 +14°C° 0 mm 3 mps 724 mmHg 79%
    12:00 +16°C° 0 mm 3 mps 723 mmHg 74%
    13:00 +15°C° 0 mm 4 mps 722 mmHg 70%
    14:00 +17°C° 0 mm 4 mps 722 mmHg 66%
    15:00 +17°C° 0 mm 4 mps 721 mmHg 69%
    16:00 +15°C° 0 mm 4 mps 721 mmHg 72%
    17:00 +14°C° 0 mm 4 mps 721 mmHg 75%
    18:00 +13°C° 0 mm 3 mps 721 mmHg 80%
    19:00 +12°C° 0 mm 3 mps 721 mmHg 85%
    20:00 +11°C° 0 mm 3 mps 721 mmHg 90%
    21:00 +12°C° 0 mm 2 mps 722 mmHg 90%
    22:00 +12°C° 0 mm 2 mps 722 mmHg 91%
    23:00 +10°C° 0 mm 2 mps 722 mmHg 91%

    1 June, Saturday

    Time Temperature Precipitation Wind Pressure Humidity
    00:00 +10°C° 0 mm 2 mps 722 mmHg 91%
    01:00 +11°C° 0 mm 1 mps 722 mmHg 91%
    02:00 +11°C° 0 mm 1 mps 722 mmHg 90%
    03:00 +11°C° 0 mm 1 mps 722 mmHg 90%
    04:00 +11°C° 0 mm 1 mps 722 mmHg 89%
    05:00 +11°C° 0 mm 1 mps 722 mmHg 88%
    06:00 +11°C° 0 mm 1 mps 722 mmHg 86%
    07:00 +11°C° 0 mm 1 mps 722 mmHg 85%
    08:00 +10°C° 0 mm 0 mps 723 mmHg 83%
    09:00 +13°C° 0 mm 1 mps 723 mmHg 73%
    10:00 +16°C° 0 mm 1 mps 723 mmHg 63%
    11:00 +18°C° 0 mm 2 mps 723 mmHg 53%
    12:00 +19°C° 0 mm 2 mps 723 mmHg 49%
    13:00 +20°C° 0 mm 3 mps 722 mmHg 45%
    14:00 +21°C° 0 mm 3 mps 722 mmHg 41%
    15:00 +20°C° 0 mm 3 mps 722 mmHg 48%
    16:00 +19°C° 0 mm 3 mps 722 mmHg 54%
    17:00 +18°C° 0 mm 3 mps 722 mmHg 60%
    18:00 +16°C° 0 mm 2 mps 723 mmHg 70%
    19:00 +15°C° 0 mm 1 mps 724 mmHg 79%
    20:00 +14°C° 0 mm 1 mps 724 mmHg 88%
    21:00 +14°C° 0 mm 1 mps 725 mmHg 89%
    22:00 +14°C° 0 mm 1 mps 725 mmHg 89%
    23:00 +14°C° 0 mm 1 mps 726 mmHg 90%
    Show more